[[{"header":{"parameterUnit":"m.s-1","parameterCategory":2,"la1":30.2991,"la2":30.254,"lo1":-89.0895,"lo2":-89.0444,"dy":0.0017,"dx":0.0017,"nx":28,"ny":28,"refTime":"2026-02-13T09:00:00:Z","depth":"0","parameterNumber":2,"parameterNumberName":"U-component_of_CURRENTS"},"data":[0,0,0,0,0,0,0,0,0,0,0,0,0,0,0,0,0,0,0,0,0,0,0,0,0,0,0,0,0,0,0,0,0,0,0,0,0,0,0,0,0,0,0,0,0,0,0,0,0,0,0,0,0,0,0,0,0,0,-0.2879,-0.2881,0,-0.3037,-0.3038,-0.3039,-0.3053,-0.3053,-0.3052,-0.3051,-0.3024,-0.3024,-0.3024,0,0,0,0,0,0,0,0,0,0,0,0,0,-0.2623,-0.2627,-0.2879,-0.2882,-0.2884,-0.3037,-0.3038,-0.3039,-0.3054,-0.3053,-0.3052,-0.3051,-0.3024,-0.3024,-0.3024,0,0,0,0,0,0,0,0,0,0,0,0,0,-0.2744,-0.2628,-0.2878,-0.2917,-0.2922,-0.3037,-0.3038,-0.304,-0.3054,-0.3053,-0.3051,-0.305,-0.3024,-0.3024,-0.3024,-0.3049,0,0,-0.3024,-0.3024,0,0,0,0,0,0,0,0,-0.2737,-0.2752,-0.2908,-0.2914,-0.2921,-0.3032,-0.2939,-0.3037,-0.3054,-0.2994,-0.3051,-0.305,-0.3017,-0.3017,-0.3039,-0.3048,-0.3047,-0.3024,-0.3024,-0.3024,-0.3024,0,0,0,0,0,0,0,-0.2728,-0.2746,-0.2932,-0.2912,-0.292,-0.2939,-0.2953,-0.2958,-0.2999,-0.2999,-0.3003,-0.3036,-0.3017,-0.3039,-0.3038,-0.3046,-0.3024,-0.3024,-0.3024,-0.3024,-0.3035,-0.3035,0,0,0,0,0,0,-0.2728,-0.2738,-0.2927,-0.2938,-0.2835,-0.2945,-0.296,-0.299,-0.3004,-0.3009,-0.3037,-0.3036,-0.304,-0.3038,-0.3037,-0.3037,-0.3024,-0.3024,-0.3024,-0.3035,-0.3035,-0.3036,0,0,0,0,0,0,-0.2722,-0.2743,-0.2921,-0.2848,-0.2874,-0.2951,-0.2984,-0.2994,-0.3017,-0.3036,-0.3035,-0.305,-0.3039,-0.3037,-0.3036,-0.3037,-0.3024,-0.3024,-0.3035,-0.3035,-0.3035,-0.3056,0,0,0,0,0,0,-0.2714,-0.274,-0.2751,-0.2849,-0.2878,-0.2982,-0.2987,-0.2999,-0.3044,-0.3044,-0.3047,-0.3044,-0.3037,-0.3036,-0.3036,-0.3037,-0.3024,-0.3034,-0.3035,-0.3035,-0.3055,-0.3057,-0.3059,0,0,0,0,0,-0.2704,-0.2727,-0.275,-0.2773,-0.2894,-0.2984,-0.2999,-0.3044,-0.3046,-0.3057,-0.3057,-0.3044,-0.3039,-0.3037,-0.3037,-0.3037,-0.3034,-0.3035,-0.3035,-0.3054,-0.3056,-0.3058,0,0,0,0,0,0,-0.2626,-0.2736,-0.2761,-0.2817,-0.2893,-0.299,-0.3008,-0.3048,-0.3063,-0.3051,-0.3053,-0.3051,-0.3048,-0.3043,-0.3041,-0.3041,-0.3032,-0.3033,-0.3046,-0.3049,-0.305,-0.3027,-0.3025,0,0,0,0,0,-0.2617,-0.2654,-0.2766,-0.2807,-0.2841,-0.2924,-0.2963,-0.3005,-0.3045,-0.3052,-0.3061,-0.3058,-0.3054,-0.3051,-0.3049,-0.3055,-0.3017,-0.3053,-0.3054,-0.3056,-0.3037,-0.2996,-0.2991,-0.3037,-0.3037,-0.3037,0,0,-0.26,-0.2664,-0.2685,-0.2791,-0.2844,-0.2896,-0.294,-0.3005,-0.3039,-0.3044,-0.3062,-0.3066,-0.3058,-0.3061,-0.3059,-0.3054,-0.3023,-0.3057,-0.3058,-0.3038,-0.2996,-0.2991,-0.2987,-0.3038,-0.3038,-0.3038,0,0,-0.2582,-0.2637,-0.2659,-0.272,-0.2817,-0.2875,-0.2895,-0.2994,-0.3019,-0.3061,-0.3059,-0.3059,-0.3077,-0.3064,-0.306,-0.307,-0.3035,-0.3077,-0.3068,-0.3029,-0.3024,-0.302,-0.2961,-0.2951,-0.3078,-0.3078,-0.3078,0,-0.2551,-0.2605,-0.2679,-0.2719,-0.2764,-0.2861,-0.2895,-0.2948,-0.3033,-0.3044,-0.306,-0.3076,-0.3071,-0.3058,-0.3063,-0.3071,-0.3039,-0.3063,-0.303,-0.3025,-0.302,-0.296,-0.2949,-0.3079,-0.3079,-0.3079,-0.3079,0,-0.2557,-0.2597,-0.2615,-0.269,-0.2744,-0.2795,-0.2887,-0.2928,-0.2976,-0.3027,-0.3044,-0.3057,-0.3057,-0.3068,-0.307,-0.3039,-0.3025,-0.3037,-0.3022,-0.3016,-0.2954,-0.2942,-0.3081,-0.3081,-0.308,-0.308,0,0,-0.2494,-0.2596,-0.26,-0.2625,-0.2733,-0.2781,-0.2828,-0.29,-0.2917,-0.2991,-0.2996,-0.3019,-0.3035,-0.303,-0.304,-0.3016,-0.2959,-0.3015,-0.3012,-0.295,-0.2855,-0.2816,-0.2798,-0.2972,-0.297,-0.2968,-0.2824,0,-0.2472,-0.2522,-0.2584,-0.2625,-0.2661,-0.2746,-0.278,-0.2851,-0.2908,-0.2936,-0.2969,-0.2976,-0.3021,-0.3014,-0.3004,-0.2977,-0.2928,-0.2995,-0.2874,-0.2869,-0.2831,-0.2784,-0.2713,-0.2576,-0.2812,-0.281,-0.2808,0,-0.2453,-0.2493,-0.2525,-0.2594,-0.2613,-0.2645,-0.2704,-0.2752,-0.2815,-0.2851,-0.2883,-0.2917,-0.2912,-0.2938,-0.2887,-0.2932,-0.2879,-0.2856,-0.285,-0.2793,-0.2807,-0.2621,-0.2544,-0.2539,-0.2789,-0.2791,-0.2792,0,-0.2374,-0.2447,-0.2464,-0.2493,-0.2588,-0.2598,-0.2641,-0.2713,-0.2747,-0.2785,-0.2801,-0.2826,-0.2822,-0.2796,-0.2795,-0.2824,-0.2718,-0.2746,-0.2648,-0.2645,-0.2545,-0.2536,-0.244,-0.2651,-0.2652,-0.2652,-0.2653,0,-0.2335,-0.2346,-0.2424,-0.2439,-0.245,-0.2529,-0.2545,-0.2593,-0.2648,-0.2673,-0.2742,-0.2752,-0.2786,-0.2766,-0.2749,-0.267,-0.2677,-0.2615,-0.2597,-0.2551,-0.2545,-0.2507,-0.2531,-0.2647,-0.2648,-0.2649,-0.265,0,-0.2253,-0.2307,-0.233,-0.2401,-0.2418,-0.2422,-0.2496,-0.2513,-0.2569,-0.2595,-0.2602,-0.2671,-0.2646,-0.2665,-0.2602,-0.2591,-0.2477,-0.2479,-0.242,-0.2398,-0.2312,-0.234,-0.2173,-0.2112,-0.2331,-0.2329,-0.2327,0,-0.2218,-0.2221,-0.2282,-0.2293,-0.2322,-0.235,-0.2375,-0.2456,-0.2486,-0.2551,-0.2551,-0.2547,-0.2545,-0.2461,-0.2432,-0.2356,-0.2358,-0.2229,-0.2267,-0.2266,-0.2285,-0.2294,-0.2256,-0.2135,-0.2132,-0.213,-0.2128,0,-0.2143,-0.2161,-0.2182,-0.2202,-0.2223,-0.2253,-0.2294,-0.2308,-0.24,-0.2417,-0.2428,-0.2421,-0.2382,-0.2303,-0.2229,-0.218,-0.2188,-0.2174,-0.218,-0.2115,-0.2107,-0.2054,-0.2273,-0.2105,-0.2108,-0.2109,-0.211,-0.2111,-0.207,-0.2063,-0.2087,-0.2092,-0.212,-0.2127,-0.2109,-0.2172,-0.2182,-0.2193,-0.2266,-0.2233,-0.2211,-0.2108,-0.2062,-0.1969,-0.1999,-0.1923,-0.1949,-0.1953,-0.1913,-0.2077,-0.1902,-0.1903,-0.1904,-0.1905,-0.1905,0,-0.1968,-0.197,-0.1978,-0.198,-0.196,-0.2011,-0.2032,-0.1995,-0.1963,-0.2026,-0.202,-0.2023,-0.1938,-0.1929,-0.186,-0.1785,-0.1744,-0.1743,-0.1746,-0.1712,-0.1847,-0.1861,-0.1661,-0.1661,-0.1661,-0.1661,-0.1661,-0.1661,-0.1915,-0.1877,-0.1878,-0.1804,-0.1806,-0.173,-0.1709,-0.1679,-0.1693,-0.1671,-0.1712,-0.1792,-0.1794,-0.1889,-0.1793,-0.171,-0.1664,-0.1606,-0.1618,-0.1754,-0.1774,-0.1793,-0.1812,-0.1605,-0.1605,-0.1429,-0.1428,-0.1428]},{"header":{"parameterUnit":"m.s-1","parameterCategory":2,"la1":30.2991,"la2":30.254,"lo1":-89.0895,"lo2":-89.0444,"dy":0.0017,"dx":0.0017,"nx":28,"ny":28,"refTime":"2026-02-13T09:00:00:Z","depth":"0","parameterNumber":3,"parameterNumberName":"V-component_of_CURRENTS"},"data":[0,0,0,0,0,0,0,0,0,0,0,0,0,0,0,0,0,0,0,0,0,0,0,0,0,0,0,0,0,0,0,0,0,0,0,0,0,0,0,0,0,0,0,0,0,0,0,0,0,0,0,0,0,0,0,0,0,0,-0.0285,-0.0284,0,-0.0159,-0.0157,-0.0156,-0.0078,-0.0077,-0.0077,-0.0077,0.0057,0.006,0.0063,0,0,0,0,0,0,0,0,0,0,0,0,0,-0.0344,-0.0344,-0.0285,-0.0284,-0.0282,-0.0159,-0.0157,-0.0155,-0.0078,-0.0077,-0.0077,-0.0076,0.0056,0.0059,0.0063,0,0,0,0,0,0,0,0,0,0,0,0,0,-0.0278,-0.0344,-0.0286,-0.0229,-0.0223,-0.0159,-0.0157,-0.0155,-0.0078,-0.0077,-0.0077,-0.0076,0.0054,0.0059,0.0064,0.0083,0,0,0.0079,0.0081,0,0,0,0,0,0,0,0,-0.0282,-0.0276,-0.0239,-0.0233,-0.0226,-0.0134,-0.0129,-0.0075,-0.0078,-0.0132,-0.0077,-0.0076,-0.0007,0.0003,0.0026,0.009,0.0095,0.0079,0.0082,0.0084,0.0085,0,0,0,0,0,0,0,-0.0287,-0.028,-0.0234,-0.0237,-0.0229,-0.0171,-0.0162,-0.0118,-0.0074,-0.0127,-0.0122,-0.0109,-0.0003,0.0021,0.003,0.0097,0.0079,0.0083,0.0086,0.0088,0.0193,0.0193,0,0,0,0,0,0,-0.0311,-0.0285,-0.0238,-0.0231,-0.0254,-0.0171,-0.016,-0.0163,-0.0074,-0.006,-0.0109,-0.0106,0.0013,0.0024,0.0035,0.0071,0.0084,0.0089,0.0091,0.0193,0.0193,0.0193,0,0,0,0,0,0,-0.0313,-0.0308,-0.0244,-0.0254,-0.0242,-0.0171,-0.0174,-0.0161,-0.0135,-0.006,-0.0046,-0.0097,0.0014,0.0028,0.0071,0.0076,0.0091,0.0095,0.0193,0.0193,0.0193,0.0138,0,0,0,0,0,0,-0.0315,-0.031,-0.0318,-0.0257,-0.0243,-0.0213,-0.0175,-0.0159,-0.0129,-0.0122,-0.0045,-0.0032,0.0015,0.0064,0.0076,0.0083,0.0099,0.0193,0.0193,0.0193,0.014,0.0136,0.0132,0,0,0,0,0,-0.0318,-0.0343,-0.032,-0.0313,-0.0257,-0.0214,-0.0201,-0.0147,-0.0129,-0.0121,-0.007,-0.0034,0.0071,0.0068,0.0082,0.0091,0.0193,0.0193,0.0193,0.0141,0.0137,0.0132,0,0,0,0,0,0,-0.0371,-0.0335,-0.0309,-0.0321,-0.027,-0.0201,-0.0194,-0.0154,-0.0106,-0.0104,-0.0034,-0.0017,0.0022,0.006,0.0054,0.0119,0.0137,0.014,0.0093,0.0089,0.0086,0.0074,0.0103,0,0,0,0,0,-0.0387,-0.0397,-0.0339,-0.0344,-0.033,-0.0261,-0.0237,-0.0199,-0.0148,-0.0126,-0.0071,-0.0017,0.0032,0.0062,0.0106,0.0143,0.0183,0.0157,0.0153,0.015,0.015,0.0217,0.0219,0.0192,0.0192,0.0192,0,0,-0.0405,-0.0388,-0.039,-0.0355,-0.0318,-0.0299,-0.0246,-0.0219,-0.0193,-0.0121,-0.0082,-0.0031,0.0036,0.0078,0.0099,0.0112,0.0175,0.0149,0.0146,0.0148,0.0217,0.022,0.0222,0.0192,0.0192,0.0192,0,0,-0.0453,-0.0437,-0.0459,-0.0428,-0.0381,-0.0333,-0.033,-0.0264,-0.0227,-0.0182,-0.0124,-0.0071,-0.0,0.0058,0.0094,0.0096,0.0148,0.0105,0.0087,0.0151,0.0154,0.0158,0.0195,0.0202,0.0109,0.0109,0.0109,0,-0.0472,-0.0492,-0.0453,-0.0461,-0.0438,-0.0356,-0.0357,-0.0307,-0.023,-0.0198,-0.0182,-0.0058,-0.0007,0.0065,0.0065,0.0089,0.0123,0.0098,0.0147,0.0151,0.0155,0.0193,0.0202,0.0107,0.0107,0.0107,0.0107,0,-0.0527,-0.0537,-0.0549,-0.0529,-0.0499,-0.0488,-0.0415,-0.0376,-0.0323,-0.0261,-0.0186,-0.0105,-0.003,-0.0004,0.0032,0.0091,0.0103,0.0129,0.0157,0.0155,0.0195,0.0204,0.0103,0.0104,0.0104,0.0105,0,0,-0.0577,-0.0588,-0.0588,-0.059,-0.0535,-0.0513,-0.0475,-0.0405,-0.0369,-0.0286,-0.0232,-0.014,-0.0087,-0.0043,0.0019,0.0081,0.0132,0.011,0.0115,0.0144,0.0257,0.0277,0.029,0.0169,0.0171,0.0172,0.0267,0,-0.0622,-0.0669,-0.0647,-0.0655,-0.0665,-0.0586,-0.0554,-0.0478,-0.0398,-0.0326,-0.0219,-0.0149,-0.0103,-0.0065,0.0003,0.0108,0.0158,0.0103,0.0258,0.0262,0.0279,0.0302,0.0327,0.0415,0.0277,0.0278,0.028,0,-0.0671,-0.0696,-0.0735,-0.0721,-0.0716,-0.0701,-0.0623,-0.058,-0.0457,-0.0398,-0.0299,-0.021,-0.01,-0.0069,0.0107,0.0069,0.0147,0.0225,0.0231,0.0278,0.0301,0.04,0.0439,0.0567,0.0295,0.0294,0.0293,0,-0.0721,-0.0746,-0.0781,-0.0777,-0.0751,-0.0742,-0.0709,-0.0605,-0.056,-0.0437,-0.0386,-0.0242,-0.0166,-0.0035,0.0124,0.0116,0.0313,0.0325,0.0414,0.0415,0.0482,0.0486,0.0664,0.0431,0.0431,0.0431,0.043,0,-0.0771,-0.0794,-0.0814,-0.0831,-0.085,-0.0805,-0.0784,-0.0724,-0.063,-0.0568,-0.0432,-0.0349,-0.0153,-0.001,0.0119,0.0303,0.031,0.0417,0.0451,0.046,0.0462,0.0613,0.0652,0.0434,0.0434,0.0433,0.0432,0,-0.0814,-0.083,-0.0871,-0.0879,-0.0881,-0.089,-0.0852,-0.0825,-0.0732,-0.0646,-0.0611,-0.0421,-0.0227,-0.0032,0.0192,0.0296,0.0547,0.0522,0.0505,0.0536,0.0726,0.0759,0.0954,0.1018,0.0635,0.0636,0.0637,0,-0.084,-0.0873,-0.0916,-0.0944,-0.0953,-0.0961,-0.096,-0.0886,-0.0847,-0.0679,-0.0641,-0.0439,-0.0274,0.0059,0.0288,0.0524,0.0614,0.0658,0.0651,0.0751,0.0814,0.0838,0.0877,0.0711,0.0713,0.0714,0.0715,0,-0.0883,-0.0903,-0.0939,-0.1009,-0.1034,-0.1047,-0.1038,-0.1027,-0.0915,-0.0823,-0.0666,-0.0521,-0.0185,0.0114,0.0412,0.0553,0.0748,0.0689,0.0822,0.0913,0.0925,0.0996,0.061,0.0726,0.0725,0.0724,0.0724,0.0723,-0.0906,-0.0949,-0.1006,-0.1062,-0.1096,-0.1119,-0.112,-0.1082,-0.1015,-0.0856,-0.0712,-0.0467,-0.0043,0.0399,0.056,0.0893,0.0856,0.0986,0.1023,0.1041,0.1097,0.0715,0.0851,0.0851,0.085,0.085,0.085,0,-0.0932,-0.0987,-0.1052,-0.1118,-0.1162,-0.1162,-0.1153,-0.1119,-0.104,-0.0872,-0.0697,-0.0219,0.0196,0.0578,0.1053,0.1224,0.1257,0.1308,0.1364,0.1392,0.1095,0.1093,0.1255,0.1255,0.1255,0.1254,0.1254,0.1254,-0.095,-0.1024,-0.1065,-0.1153,-0.1194,-0.1216,-0.1206,-0.1131,-0.1009,-0.0728,-0.0453,-0.0231,0.0324,0.1093,0.1531,0.1565,0.1695,0.168,0.175,0.1559,0.1532,0.1506,0.1518,0.1766,0.1766,0.2043,0.2045,0.2047]}],[{"header":{"parameterUnit":"m.s-1","parameterCategory":2,"la1":30.2991,"la2":30.254,"lo1":-89.0895,"lo2":-89.0444,"dy":0.0017,"dx":0.0017,"nx":28,"ny":28,"refTime":"2026-02-13T09:00:00:Z","depth":"2","parameterNumber":2,"parameterNumberName":"U-component_of_CURRENTS"},"data":[0,0,0,0,0,0,0,0,0,0,0,0,0,0,0,0,0,0,0,0,0,0,0,0,0,0,0,0,0,0,0,0,0,0,0,0,0,0,0,0,0,0,0,0,0,0,0,0,0,0,0,0,0,0,0,0,0,0,-0.239,-0.2391,0,-0.243,-0.243,-0.243,-0.244,-0.244,-0.2441,-0.2441,-0.2472,-0.2472,-0.2473,0,0,0,0,0,0,0,0,0,0,0,0,0,-0.2261,-0.2263,-0.239,-0.2391,-0.2392,-0.243,-0.243,-0.243,-0.244,-0.244,-0.2441,-0.2441,-0.2471,-0.2472,-0.2473,0,0,0,0,0,0,0,0,0,0,0,0,0,-0.2306,-0.2264,-0.239,-0.2405,-0.2407,-0.243,-0.243,-0.243,-0.244,-0.244,-0.2441,-0.2441,-0.2471,-0.2472,-0.2473,-0.2475,0,0,-0.2476,-0.2477,0,0,0,0,0,0,0,0,-0.2304,-0.231,-0.2402,-0.2404,-0.2406,-0.2434,-0.2396,-0.2446,-0.244,-0.2423,-0.2441,-0.2441,-0.2461,-0.2463,-0.2464,-0.2476,-0.2477,-0.2476,-0.2477,-0.2477,-0.2478,0,0,0,0,0,0,0,-0.2301,-0.2308,-0.2401,-0.2403,-0.2406,-0.2388,-0.2395,-0.2405,-0.2437,-0.2424,-0.2426,-0.2438,-0.2462,-0.2463,-0.2465,-0.2478,-0.2476,-0.2477,-0.2478,-0.2478,-0.2509,-0.2509,0,0,0,0,0,0,-0.2308,-0.2306,-0.24,-0.2403,-0.2359,-0.2391,-0.2398,-0.2421,-0.2437,-0.2441,-0.2437,-0.2438,-0.2461,-0.2463,-0.2466,-0.2502,-0.2477,-0.2478,-0.2479,-0.2508,-0.2509,-0.2509,0,0,0,0,0,0,-0.2305,-0.2316,-0.2399,-0.2358,-0.2368,-0.2394,-0.2419,-0.2422,-0.2441,-0.2448,-0.245,-0.2456,-0.2461,-0.2464,-0.2485,-0.2502,-0.2479,-0.248,-0.2508,-0.2508,-0.2509,-0.2552,0,0,0,0,0,0,-0.2302,-0.2315,-0.2328,-0.2359,-0.2371,-0.2425,-0.2419,-0.2423,-0.2449,-0.245,-0.2464,-0.2466,-0.2461,-0.2484,-0.2486,-0.2503,-0.248,-0.2508,-0.2508,-0.2509,-0.255,-0.2554,-0.2557,0,0,0,0,0,-0.2297,-0.2315,-0.2329,-0.234,-0.239,-0.2426,-0.243,-0.2445,-0.245,-0.2462,-0.2469,-0.2467,-0.2487,-0.2485,-0.2488,-0.2505,-0.2508,-0.2508,-0.2509,-0.2549,-0.2553,-0.2557,0,0,0,0,0,0,-0.2264,-0.2319,-0.2335,-0.2369,-0.2402,-0.243,-0.2438,-0.2457,-0.2471,-0.2472,-0.2476,-0.2478,-0.2499,-0.2495,-0.2492,-0.2512,-0.2495,-0.2496,-0.2525,-0.2529,-0.2532,-0.2517,-0.2481,0,0,0,0,0,-0.2265,-0.2291,-0.2343,-0.2366,-0.2386,-0.2416,-0.2431,-0.2451,-0.2471,-0.2478,-0.2492,-0.2497,-0.25,-0.251,-0.2511,-0.253,-0.2497,-0.2539,-0.2542,-0.2545,-0.2533,-0.2501,-0.2501,-0.251,-0.251,-0.251,0,0,-0.2255,-0.229,-0.2303,-0.236,-0.2382,-0.2409,-0.2425,-0.2458,-0.2475,-0.2479,-0.2502,-0.2512,-0.2506,-0.2522,-0.2531,-0.2525,-0.2525,-0.2546,-0.2548,-0.2534,-0.2502,-0.2501,-0.25,-0.2511,-0.2511,-0.2511,0,0,-0.2243,-0.2285,-0.2301,-0.2335,-0.2384,-0.2408,-0.2426,-0.2473,-0.2487,-0.2521,-0.2517,-0.2533,-0.2555,-0.2547,-0.2545,-0.2565,-0.2541,-0.2576,-0.2587,-0.2557,-0.2556,-0.2554,-0.2509,-0.2503,-0.2581,-0.2581,-0.2581,0,-0.2226,-0.2262,-0.2309,-0.2336,-0.2359,-0.2412,-0.2433,-0.2459,-0.2505,-0.2515,-0.2533,-0.2555,-0.2558,-0.2559,-0.2568,-0.2572,-0.2548,-0.2577,-0.2561,-0.2559,-0.2556,-0.2511,-0.2503,-0.2583,-0.2583,-0.2582,-0.2582,0,-0.2229,-0.226,-0.2273,-0.2324,-0.2357,-0.2386,-0.2438,-0.247,-0.2505,-0.2529,-0.2557,-0.2569,-0.2575,-0.2589,-0.2589,-0.2581,-0.2567,-0.2568,-0.2552,-0.2558,-0.2509,-0.2501,-0.2586,-0.2585,-0.2585,-0.2584,0,0,-0.2182,-0.2257,-0.2261,-0.228,-0.2356,-0.2379,-0.2419,-0.2462,-0.2476,-0.2533,-0.254,-0.257,-0.2587,-0.2584,-0.2592,-0.2581,-0.2551,-0.2577,-0.2574,-0.2532,-0.2476,-0.2428,-0.2414,-0.2559,-0.2557,-0.2557,-0.2448,0,-0.2165,-0.22,-0.2248,-0.2279,-0.2303,-0.2366,-0.2392,-0.244,-0.2482,-0.2503,-0.2533,-0.2544,-0.2581,-0.2586,-0.2586,-0.256,-0.2532,-0.2579,-0.2475,-0.2471,-0.2428,-0.2404,-0.226,-0.2148,-0.244,-0.2438,-0.2437,0,-0.2148,-0.2176,-0.2202,-0.2256,-0.2272,-0.2297,-0.2346,-0.2379,-0.2428,-0.2458,-0.2495,-0.2518,-0.2524,-0.2543,-0.2511,-0.2545,-0.2505,-0.2486,-0.2482,-0.2412,-0.2407,-0.2189,-0.2122,-0.2423,-0.2424,-0.2425,-0.2426,0,-0.2084,-0.214,-0.2154,-0.2177,-0.225,-0.2265,-0.23,-0.2359,-0.2384,-0.242,-0.2439,-0.2465,-0.2466,-0.2448,-0.2443,-0.2468,-0.2386,-0.2406,-0.2316,-0.2312,-0.2152,-0.2136,-0.2342,-0.2342,-0.2342,-0.2342,-0.2343,0,-0.205,-0.2059,-0.2123,-0.2134,-0.2146,-0.2214,-0.2232,-0.2274,-0.2324,-0.2343,-0.2404,-0.2414,-0.2444,-0.2425,-0.241,-0.2341,-0.2354,-0.2297,-0.2276,-0.2164,-0.215,-0.2364,-0.2369,-0.2338,-0.2339,-0.234,-0.2341,0,-0.1982,-0.2026,-0.2044,-0.2104,-0.212,-0.2127,-0.2194,-0.2209,-0.2266,-0.2288,-0.2297,-0.2357,-0.2336,-0.2346,-0.2297,-0.228,-0.2224,-0.2183,-0.2049,-0.2015,-0.2173,-0.2181,-0.2063,-0.206,-0.2058,-0.2056,-0.2055,0,-0.195,-0.1953,-0.2004,-0.2013,-0.2039,-0.2067,-0.209,-0.2165,-0.2189,-0.2253,-0.225,-0.2254,-0.2244,-0.2169,-0.2132,-0.2062,-0.2129,-0.1877,-0.1897,-0.215,-0.2142,-0.2153,-0.2164,-0.1695,-0.169,-0.1687,-0.1684,0,-0.1882,-0.1901,-0.1917,-0.1934,-0.1954,-0.1976,-0.2014,-0.2024,-0.2107,-0.2125,-0.2135,-0.2126,-0.2089,-0.1968,-0.1896,-0.1842,-0.1888,-0.1801,-0.2066,-0.1808,-0.1799,-0.1793,-0.1816,-0.1651,-0.1655,-0.1657,-0.1659,-0.166,-0.182,-0.1812,-0.1831,-0.1835,-0.186,-0.1859,-0.1837,-0.1889,-0.1895,-0.1896,-0.1968,-0.1903,-0.1886,-0.1713,-0.1627,-0.1563,-0.1691,-0.1612,-0.1624,-0.1639,-0.1637,-0.1626,-0.1444,-0.1446,-0.1447,-0.1449,-0.145,0,-0.1726,-0.1726,-0.1731,-0.1727,-0.1704,-0.1754,-0.1763,-0.1716,-0.1679,-0.1715,-0.1704,-0.1523,-0.145,-0.1435,-0.1304,-0.1278,-0.1272,-0.1209,-0.1207,-0.1239,-0.1268,-0.1248,-0.0951,-0.0949,-0.0948,-0.0946,0,0,-0.1676,-0.1636,-0.1634,-0.1558,-0.1559,-0.1482,-0.1456,-0.1411,-0.1399,-0.1317,-0.1288,-0.1392,-0.1409,-0.1187,-0.113,-0.1025,-0.112,-0.0971,-0.1373,-0.1402,-0.1429,-0.1499,-0.1505,0,0,0,0,0]},{"header":{"parameterUnit":"m.s-1","parameterCategory":2,"la1":30.2991,"la2":30.254,"lo1":-89.0895,"lo2":-89.0444,"dy":0.0017,"dx":0.0017,"nx":28,"ny":28,"refTime":"2026-02-13T09:00:00:Z","depth":"2","parameterNumber":3,"parameterNumberName":"V-component_of_CURRENTS"},"data":[0,0,0,0,0,0,0,0,0,0,0,0,0,0,0,0,0,0,0,0,0,0,0,0,0,0,0,0,0,0,0,0,0,0,0,0,0,0,0,0,0,0,0,0,0,0,0,0,0,0,0,0,0,0,0,0,0,0,-0.037,-0.037,0,-0.0308,-0.0307,-0.0307,-0.0258,-0.0257,-0.0257,-0.0256,-0.0127,-0.0124,-0.0121,0,0,0,0,0,0,0,0,0,0,0,0,0,-0.0391,-0.0391,-0.037,-0.037,-0.0369,-0.0308,-0.0307,-0.0306,-0.0258,-0.0257,-0.0257,-0.0256,-0.0128,-0.0125,-0.0121,0,0,0,0,0,0,0,0,0,0,0,0,0,-0.0361,-0.0391,-0.0371,-0.0337,-0.0334,-0.0308,-0.0307,-0.0306,-0.0258,-0.0257,-0.0256,-0.0256,-0.0129,-0.0125,-0.0121,-0.0107,0,0,-0.0107,-0.0105,0,0,0,0,0,0,0,0,-0.0362,-0.036,-0.0343,-0.0339,-0.0335,-0.029,-0.0267,-0.0236,-0.0258,-0.0287,-0.0256,-0.0255,-0.0176,-0.0168,-0.0158,-0.0101,-0.0096,-0.0106,-0.0104,-0.0102,-0.0101,0,0,0,0,0,0,0,-0.0365,-0.0362,-0.0346,-0.0342,-0.0338,-0.0306,-0.0301,-0.0261,-0.0235,-0.0284,-0.028,-0.0274,-0.0173,-0.0163,-0.0155,-0.0094,-0.0107,-0.0103,-0.01,-0.0098,0.0005,0.0005,0,0,0,0,0,0,-0.0376,-0.0365,-0.0348,-0.0344,-0.0347,-0.0306,-0.0301,-0.0305,-0.0237,-0.0226,-0.0274,-0.0272,-0.0171,-0.016,-0.015,-0.0107,-0.0102,-0.0098,-0.0095,0.0005,0.0005,0.0005,0,0,0,0,0,0,-0.0377,-0.0376,-0.035,-0.0352,-0.0346,-0.0307,-0.0312,-0.0304,-0.029,-0.023,-0.0218,-0.0267,-0.017,-0.0156,-0.0111,-0.0102,-0.0096,-0.0092,0.0005,0.0005,0.0005,-0.0035,0,0,0,0,0,0,-0.0378,-0.0377,-0.0384,-0.0353,-0.0347,-0.0336,-0.0312,-0.0304,-0.0287,-0.0283,-0.022,-0.0207,-0.0168,-0.0118,-0.0107,-0.0096,-0.0088,0.0005,0.0005,0.0005,-0.0034,-0.0036,-0.0038,0,0,0,0,0,-0.0379,-0.0403,-0.0385,-0.0383,-0.0359,-0.0336,-0.033,-0.0299,-0.0288,-0.0283,-0.024,-0.0209,-0.0109,-0.0114,-0.0101,-0.0089,0.0004,0.0005,0.0005,-0.0033,-0.0036,-0.0038,0,0,0,0,0,0,-0.0417,-0.0399,-0.0379,-0.0395,-0.0364,-0.0328,-0.0329,-0.0303,-0.0268,-0.0263,-0.0206,-0.0191,-0.0149,-0.0117,-0.0124,-0.006,-0.0048,-0.0045,-0.0081,-0.0083,-0.0086,-0.0095,-0.0084,0,0,0,0,0,-0.0429,-0.044,-0.0404,-0.0414,-0.0405,-0.0365,-0.0353,-0.0328,-0.0293,-0.0277,-0.0232,-0.0184,-0.014,-0.0111,-0.0071,-0.0034,0.0002,-0.0019,-0.0021,-0.0023,-0.0022,0.004,0.0043,0.0005,0.0005,0.0005,0,0,-0.0444,-0.0436,-0.044,-0.0422,-0.0401,-0.0389,-0.0357,-0.0343,-0.0325,-0.0268,-0.0236,-0.0192,-0.0134,-0.0094,-0.0072,-0.0062,0.0004,-0.0023,-0.0025,-0.0023,0.004,0.0044,0.0047,0.0005,0.0005,0.0005,0,0,-0.0486,-0.0476,-0.0496,-0.0476,-0.0447,-0.0414,-0.0411,-0.037,-0.0345,-0.0307,-0.0262,-0.0212,-0.0151,-0.0101,-0.007,-0.0062,-0.0015,-0.0052,-0.0062,-0.0003,0.0001,0.0005,0.0046,0.0054,-0.0048,-0.0048,-0.0048,0,-0.0502,-0.0523,-0.0496,-0.0505,-0.0491,-0.0428,-0.0433,-0.0396,-0.0341,-0.0316,-0.0302,-0.0199,-0.0152,-0.0088,-0.0086,-0.0065,-0.0032,-0.0056,-0.0005,-0.0001,0.0004,0.0045,0.0054,-0.005,-0.0049,-0.0049,-0.0049,0,-0.0552,-0.0563,-0.0575,-0.056,-0.0539,-0.0534,-0.0477,-0.0445,-0.0403,-0.0358,-0.0292,-0.0223,-0.016,-0.0136,-0.0107,-0.0049,-0.0038,-0.002,0.0001,0.0005,0.0048,0.0058,-0.0052,-0.0052,-0.0051,-0.0051,0,0,-0.0596,-0.0608,-0.0609,-0.0613,-0.0568,-0.0555,-0.052,-0.0465,-0.0436,-0.0368,-0.0325,-0.0242,-0.0199,-0.0161,-0.0108,-0.0051,0.0006,-0.0026,-0.0022,0.0011,0.0126,0.0142,0.0155,0.0034,0.0035,0.0037,0.0139,0,-0.0635,-0.068,-0.0662,-0.0671,-0.0682,-0.0615,-0.0588,-0.0526,-0.0459,-0.0399,-0.0307,-0.0249,-0.0208,-0.0176,-0.0112,-0.002,0.0033,-0.0024,0.0119,0.0123,0.0135,0.0167,0.0133,0.0222,0.015,0.0151,0.0153,0,-0.0679,-0.0704,-0.0741,-0.0732,-0.0728,-0.0717,-0.065,-0.0615,-0.0509,-0.046,-0.0373,-0.0297,-0.0196,-0.017,-0.0007,-0.0046,0.003,0.0101,0.0107,0.0144,0.0159,0.0209,0.0244,0.017,0.0169,0.0168,0.0166,0,-0.0724,-0.0749,-0.0783,-0.0781,-0.076,-0.0754,-0.0726,-0.0637,-0.0601,-0.0492,-0.0449,-0.0319,-0.025,-0.0129,0.0017,0.0007,0.0192,0.0198,0.0284,0.0285,0.0296,0.0296,0.0305,0.0305,0.0305,0.0304,0.0304,0,-0.0769,-0.0792,-0.0813,-0.083,-0.0852,-0.0813,-0.0798,-0.0745,-0.0663,-0.0613,-0.0489,-0.0416,-0.0236,-0.0104,0.0015,0.0187,0.0194,0.0292,0.0322,0.028,0.0277,0.0263,0.0257,0.0308,0.0307,0.0306,0.0306,0,-0.0808,-0.0825,-0.0864,-0.0875,-0.0879,-0.0891,-0.0862,-0.084,-0.0757,-0.0685,-0.0653,-0.0479,-0.0299,-0.0118,0.0091,0.0185,0.0345,0.0397,0.0327,0.0347,0.0394,0.0384,0.0506,0.0508,0.0509,0.051,0.0511,0,-0.0832,-0.0863,-0.0907,-0.0936,-0.0946,-0.0958,-0.096,-0.0896,-0.0864,-0.0715,-0.0683,-0.0494,-0.0344,-0.0034,0.0175,0.0395,0.0393,0.0471,0.0451,0.0403,0.0419,0.0407,0.0396,0.0446,0.0446,0.0446,0.0446,0,-0.0872,-0.0892,-0.0927,-0.0996,-0.1023,-0.104,-0.1036,-0.1028,-0.0931,-0.085,-0.071,-0.0579,-0.0269,-0.0019,0.0261,0.0382,0.0435,0.0484,0.0479,0.0393,0.0353,0.0366,0.0356,0.0449,0.0449,0.0448,0.0448,0.0448,-0.0893,-0.0934,-0.099,-0.1047,-0.1083,-0.1109,-0.1112,-0.1081,-0.1024,-0.0883,-0.0756,-0.054,-0.0293,0.011,0.0311,0.0493,0.0494,0.0527,0.0523,0.052,0.0488,0.0452,0.056,0.056,0.0561,0.0561,0.0561,0,-0.0919,-0.0971,-0.1034,-0.1101,-0.1146,-0.1149,-0.1146,-0.1116,-0.1047,-0.0901,-0.0745,-0.0464,-0.018,0.0077,0.0369,0.054,0.0524,0.0558,0.05,0.0497,0.0494,0.0459,0.0524,0.0525,0.0525,0.0525,0,0,-0.0937,-0.1007,-0.1046,-0.1133,-0.1177,-0.1203,-0.1197,-0.1127,-0.1019,-0.0863,-0.0704,-0.0491,-0.0176,0.0016,0.024,0.0391,0.0395,0.0401,0.0413,0.0315,0.031,0.046,0.0401,0,0,0,0,0]}],[{"header":{"parameterUnit":"m.s-1","parameterCategory":2,"la1":30.2991,"la2":30.254,"lo1":-89.0895,"lo2":-89.0444,"dy":0.0017,"dx":0.0017,"nx":28,"ny":28,"refTime":"2026-02-13T09:00:00:Z","depth":"4","parameterNumber":2,"parameterNumberName":"U-component_of_CURRENTS"},"data":[0,0,0,0,0,0,0,0,0,0,0,0,0,0,0,0,0,0,0,0,0,0,0,0,0,0,0,0,0,0,0,0,0,0,0,0,0,0,0,0,0,0,0,0,0,0,0,0,0,0,0,0,0,0,0,0,0,0,-0.145,-0.145,0,-0.1398,-0.1398,-0.1397,-0.139,-0.139,-0.1391,-0.1391,-0.1421,-0.1422,-0.1422,0,0,0,0,0,0,0,0,0,0,0,0,0,-0.1432,-0.1433,-0.145,-0.145,-0.1449,-0.1398,-0.1398,-0.1397,-0.139,-0.139,-0.1391,-0.1392,-0.1421,-0.1422,-0.1422,0,0,0,0,0,0,0,0,0,0,0,0,0,-0.1415,-0.1433,-0.1451,-0.144,-0.1439,-0.1399,-0.1398,-0.1397,-0.139,-0.139,-0.1391,-0.1392,-0.1421,-0.1421,-0.1422,-0.1407,0,0,-0.1423,-0.1423,0,0,0,0,0,0,0,0,-0.1416,-0.1416,-0.1442,-0.1441,-0.1439,-0.1402,-0.1402,-0.1404,-0.1389,-0.1407,-0.1391,-0.1392,-0.1423,-0.1423,-0.1409,-0.1408,-0.141,-0.1423,-0.1423,-0.1423,-0.1424,0,0,0,0,0,0,0,-0.1417,-0.1417,-0.1429,-0.1442,-0.144,-0.14,-0.14,-0.1401,-0.1411,-0.1406,-0.1405,-0.1401,-0.1422,-0.1408,-0.1409,-0.141,-0.1423,-0.1423,-0.1424,-0.1424,-0.1482,-0.1483,0,0,0,0,0,0,-0.1431,-0.1419,-0.143,-0.1427,-0.1431,-0.14,-0.14,-0.1413,-0.141,-0.141,-0.14,-0.1401,-0.1407,-0.1409,-0.1411,-0.1459,-0.1423,-0.1424,-0.1424,-0.148,-0.1482,-0.1483,0,0,0,0,0,0,-0.1431,-0.1433,-0.1433,-0.1421,-0.1419,-0.1401,-0.1414,-0.1411,-0.1425,-0.1405,-0.1406,-0.1421,-0.1408,-0.141,-0.1436,-0.1458,-0.1424,-0.1424,-0.1479,-0.1481,-0.1483,-0.1513,0,0,0,0,0,0,-0.1431,-0.1434,-0.1456,-0.1423,-0.142,-0.1426,-0.1414,-0.1409,-0.1419,-0.142,-0.1422,-0.1424,-0.1409,-0.1435,-0.1436,-0.1458,-0.1425,-0.1477,-0.148,-0.1482,-0.1511,-0.1516,-0.1521,0,0,0,0,0,-0.1431,-0.1448,-0.1458,-0.1459,-0.1449,-0.1427,-0.1421,-0.1409,-0.142,-0.1425,-0.1433,-0.1425,-0.1452,-0.1436,-0.1437,-0.1459,-0.1476,-0.1479,-0.1482,-0.1508,-0.1515,-0.1521,0,0,0,0,0,0,-0.1444,-0.1449,-0.1458,-0.1477,-0.1465,-0.1426,-0.1433,-0.1427,-0.1434,-0.1453,-0.1437,-0.1438,-0.1468,-0.1465,-0.1448,-0.1486,-0.1465,-0.1468,-0.1485,-0.1491,-0.1496,-0.1501,-0.1425,0,0,0,0,0,-0.146,-0.1482,-0.147,-0.1485,-0.149,-0.1471,-0.1466,-0.1462,-0.1457,-0.1461,-0.1461,-0.147,-0.1474,-0.1486,-0.1487,-0.1508,-0.1491,-0.1526,-0.1531,-0.1535,-0.1541,-0.1523,-0.1526,-0.1493,-0.1493,-0.1493,0,0,-0.1467,-0.1473,-0.1485,-0.1491,-0.1486,-0.1493,-0.1471,-0.1478,-0.1486,-0.1465,-0.1492,-0.1489,-0.1484,-0.1502,-0.1516,-0.1507,-0.1538,-0.1539,-0.1542,-0.1546,-0.1526,-0.1529,-0.1532,-0.1495,-0.1495,-0.1494,0,0,-0.1472,-0.1505,-0.152,-0.1524,-0.1531,-0.1524,-0.1537,-0.1525,-0.153,-0.1547,-0.1535,-0.1544,-0.1559,-0.1546,-0.1544,-0.1582,-0.1563,-0.1597,-0.1627,-0.1609,-0.1611,-0.1613,-0.1598,-0.1598,-0.1602,-0.1602,-0.1602,0,-0.1481,-0.1502,-0.1516,-0.1531,-0.1539,-0.1547,-0.1559,-0.1563,-0.156,-0.1568,-0.157,-0.1577,-0.1574,-0.1578,-0.1594,-0.1591,-0.1584,-0.16,-0.1614,-0.1615,-0.1616,-0.16,-0.16,-0.1604,-0.1603,-0.1603,-0.1603,0,-0.1486,-0.1516,-0.1527,-0.156,-0.1572,-0.1585,-0.1599,-0.1622,-0.164,-0.1634,-0.1652,-0.1633,-0.1636,-0.1638,-0.163,-0.1641,-0.1633,-0.1617,-0.1593,-0.1621,-0.1603,-0.1602,-0.1606,-0.1606,-0.1605,-0.1605,0,0,-0.1464,-0.152,-0.1527,-0.1546,-0.1593,-0.1594,-0.1642,-0.166,-0.1682,-0.1692,-0.17,-0.1704,-0.1698,-0.1696,-0.1679,-0.1667,-0.1666,-0.1657,-0.1656,-0.1633,-0.1636,-0.1553,-0.1544,-0.1654,-0.1654,-0.1654,-0.1621,0,-0.1461,-0.1491,-0.1526,-0.1562,-0.1579,-0.1625,-0.1656,-0.1687,-0.1711,-0.1727,-0.1721,-0.1725,-0.1719,-0.1718,-0.171,-0.1673,-0.1665,-0.1677,-0.1621,-0.162,-0.1534,-0.154,-0.1654,-0.162,-0.1619,-0.1619,-0.1619,0,-0.1447,-0.1471,-0.1507,-0.1561,-0.1575,-0.1606,-0.1666,-0.1692,-0.1735,-0.1753,-0.1771,-0.1767,-0.1762,-0.1746,-0.1709,-0.1721,-0.1694,-0.1661,-0.1658,-0.1569,-0.1534,-0.1587,-0.1616,-0.1617,-0.1617,-0.1617,-0.1617,0,-0.14,-0.1455,-0.1484,-0.1505,-0.1571,-0.1605,-0.1643,-0.1701,-0.1722,-0.1769,-0.1786,-0.1787,-0.1779,-0.1751,-0.1713,-0.1714,-0.1661,-0.1644,-0.1543,-0.1537,-0.1608,-0.1606,-0.1619,-0.1619,-0.1619,-0.1619,-0.1619,0,-0.1366,-0.1391,-0.1469,-0.1483,-0.1519,-0.158,-0.1622,-0.1668,-0.1721,-0.1735,-0.179,-0.1782,-0.1783,-0.1759,-0.1721,-0.1628,-0.1669,-0.1546,-0.1519,-0.1623,-0.1624,-0.1607,-0.1606,-0.1618,-0.1618,-0.1618,-0.1619,0,-0.1304,-0.1359,-0.1393,-0.1471,-0.1498,-0.1525,-0.1605,-0.1626,-0.1696,-0.1717,-0.1733,-0.1778,-0.1746,-0.1735,-0.1679,-0.162,-0.1546,-0.1508,-0.1631,-0.1612,-0.1434,-0.1435,-0.1377,-0.1374,-0.1371,-0.1369,-0.1367,0,-0.127,-0.1285,-0.1373,-0.1396,-0.1436,-0.1488,-0.152,-0.1602,-0.162,-0.169,-0.1678,-0.1697,-0.1709,-0.1561,-0.1572,-0.1496,-0.1477,-0.1441,-0.1429,-0.1427,-0.1408,-0.1413,-0.1418,-0.1363,-0.1362,-0.1361,-0.136,0,-0.1201,-0.1248,-0.1279,-0.1325,-0.1368,-0.1401,-0.145,-0.1448,-0.1529,-0.1611,-0.1575,-0.1554,-0.1523,-0.1483,-0.1447,-0.1392,-0.146,-0.1411,-0.1416,-0.1405,-0.1409,-0.1393,-0.1401,-0.1351,-0.1352,-0.1353,-0.1354,0,-0.1151,-0.1156,-0.1204,-0.123,-0.1283,-0.1283,-0.1326,-0.1335,-0.136,-0.1444,-0.1427,-0.1451,-0.1502,-0.1428,-0.1387,-0.1337,-0.1307,-0.1255,-0.1268,-0.1279,-0.1262,-0.1253,-0.1118,0,0,0,0,0,-0.1086,-0.1077,-0.11,-0.1119,-0.1169,-0.1192,-0.1261,-0.1306,-0.1385,-0.1322,-0.1369,-0.1336,-0.1289,-0.1305,-0.1226,-0.1334,-0.1311,-0.1239,-0.1259,-0.1297,-0.1308,-0.1298,0,0,0,0,0,0,-0.1042,-0.106,-0.1059,-0.1016,-0.1009,-0.1042,-0.1079,-0.114,-0.111,-0.1201,-0.1177,-0.1254,-0.1221,-0.1303,-0.1195,-0.1199,-0.1184,-0.1265,-0.1262,-0.1291,-0.1301,-0.131,-0.1304,0,0,0,0,0]},{"header":{"parameterUnit":"m.s-1","parameterCategory":2,"la1":30.2991,"la2":30.254,"lo1":-89.0895,"lo2":-89.0444,"dy":0.0017,"dx":0.0017,"nx":28,"ny":28,"refTime":"2026-02-13T09:00:00:Z","depth":"4","parameterNumber":3,"parameterNumberName":"V-component_of_CURRENTS"},"data":[0,0,0,0,0,0,0,0,0,0,0,0,0,0,0,0,0,0,0,0,0,0,0,0,0,0,0,0,0,0,0,0,0,0,0,0,0,0,0,0,0,0,0,0,0,0,0,0,0,0,0,0,0,0,0,0,0,0,-0.0334,-0.0334,0,-0.0333,-0.0333,-0.0333,-0.0332,-0.0332,-0.0331,-0.0331,-0.0277,-0.0275,-0.0274,0,0,0,0,0,0,0,0,0,0,0,0,0,-0.0318,-0.0318,-0.0334,-0.0334,-0.0334,-0.0333,-0.0333,-0.0333,-0.0332,-0.0332,-0.0331,-0.0331,-0.0277,-0.0275,-0.0274,0,0,0,0,0,0,0,0,0,0,0,0,0,-0.0322,-0.0318,-0.0334,-0.0333,-0.0332,-0.0333,-0.0333,-0.0333,-0.0332,-0.0332,-0.0331,-0.0331,-0.0278,-0.0276,-0.0274,-0.0264,0,0,-0.0267,-0.0266,0,0,0,0,0,0,0,0,-0.0322,-0.0323,-0.0333,-0.0333,-0.0332,-0.0332,-0.0308,-0.0307,-0.0332,-0.0333,-0.0331,-0.0331,-0.029,-0.0287,-0.0289,-0.0261,-0.0259,-0.0267,-0.0266,-0.0265,-0.0264,0,0,0,0,0,0,0,-0.0322,-0.0323,-0.0334,-0.0333,-0.0333,-0.0326,-0.0327,-0.0308,-0.0311,-0.0332,-0.0332,-0.0331,-0.0289,-0.0291,-0.0287,-0.0258,-0.0267,-0.0265,-0.0264,-0.0263,-0.0207,-0.0206,0,0,0,0,0,0,-0.0322,-0.0323,-0.0334,-0.0334,-0.0326,-0.0327,-0.0328,-0.0333,-0.0313,-0.031,-0.0331,-0.0331,-0.0294,-0.0289,-0.0285,-0.0266,-0.0265,-0.0263,-0.0262,-0.0207,-0.0206,-0.0206,0,0,0,0,0,0,-0.0321,-0.0323,-0.0334,-0.0327,-0.0328,-0.0327,-0.0333,-0.0333,-0.0338,-0.0312,-0.0309,-0.0337,-0.0294,-0.0288,-0.0267,-0.0264,-0.0262,-0.026,-0.0207,-0.0207,-0.0206,-0.0231,0,0,0,0,0,0,-0.0321,-0.0323,-0.0332,-0.0328,-0.0329,-0.0337,-0.0333,-0.0333,-0.0337,-0.0337,-0.0316,-0.031,-0.0293,-0.027,-0.0265,-0.0261,-0.0259,-0.0207,-0.0207,-0.0206,-0.023,-0.0231,-0.0232,0,0,0,0,0,-0.0321,-0.0339,-0.0332,-0.0334,-0.0339,-0.0337,-0.0338,-0.0336,-0.0337,-0.034,-0.0323,-0.0311,-0.0263,-0.0269,-0.0262,-0.0257,-0.0208,-0.0207,-0.0206,-0.023,-0.0231,-0.0232,0,0,0,0,0,0,-0.0342,-0.0341,-0.0333,-0.0351,-0.0342,-0.0337,-0.0347,-0.034,-0.0332,-0.0332,-0.0309,-0.0302,-0.0283,-0.0266,-0.0272,-0.0239,-0.0233,-0.0231,-0.0253,-0.0254,-0.0254,-0.0257,-0.0257,0,0,0,0,0,-0.0347,-0.036,-0.0349,-0.0362,-0.0361,-0.0353,-0.0354,-0.0348,-0.0338,-0.0336,-0.0319,-0.0298,-0.0275,-0.0262,-0.0243,-0.0224,-0.0199,-0.0216,-0.0217,-0.0218,-0.0215,-0.0179,-0.0176,-0.0204,-0.0204,-0.0204,0,0,-0.0359,-0.0361,-0.0367,-0.0367,-0.0364,-0.0363,-0.0354,-0.0358,-0.0352,-0.0329,-0.0322,-0.0302,-0.0272,-0.0252,-0.0242,-0.0237,-0.0195,-0.0217,-0.0218,-0.0215,-0.0178,-0.0175,-0.0172,-0.0204,-0.0204,-0.0204,0,0,-0.0389,-0.0389,-0.0406,-0.04,-0.0394,-0.038,-0.0381,-0.0372,-0.0365,-0.0351,-0.0331,-0.0308,-0.0281,-0.0255,-0.0238,-0.023,-0.0204,-0.0226,-0.023,-0.0195,-0.0192,-0.0189,-0.015,-0.0144,-0.0224,-0.0224,-0.0224,0,-0.0401,-0.0421,-0.041,-0.042,-0.0419,-0.0388,-0.0397,-0.038,-0.0363,-0.0354,-0.0351,-0.0303,-0.028,-0.0245,-0.0242,-0.0232,-0.0208,-0.023,-0.0196,-0.0193,-0.019,-0.015,-0.0143,-0.0225,-0.0225,-0.0225,-0.0225,0,-0.0435,-0.045,-0.0461,-0.0458,-0.0451,-0.0455,-0.0425,-0.0412,-0.0396,-0.0375,-0.0345,-0.0311,-0.0281,-0.0269,-0.0253,-0.0218,-0.0207,-0.0204,-0.0195,-0.0188,-0.0147,-0.0139,-0.0227,-0.0227,-0.0226,-0.0226,0,0,-0.0463,-0.0483,-0.0486,-0.0494,-0.0473,-0.0471,-0.0451,-0.0425,-0.0412,-0.0381,-0.0363,-0.0319,-0.0298,-0.0277,-0.0249,-0.0216,-0.0173,-0.0204,-0.0202,-0.0169,-0.0091,-0.0084,-0.0075,-0.0168,-0.0167,-0.0166,-0.007,0,-0.0491,-0.0529,-0.0522,-0.0539,-0.0551,-0.0514,-0.0501,-0.0468,-0.0432,-0.0402,-0.0349,-0.0322,-0.03,-0.0286,-0.0247,-0.0194,-0.0154,-0.0199,-0.01,-0.0096,-0.0094,-0.0066,-0.0162,-0.0064,-0.0062,-0.0061,-0.006,0,-0.052,-0.0543,-0.0579,-0.0586,-0.0588,-0.0588,-0.0555,-0.0537,-0.0473,-0.0447,-0.0396,-0.0351,-0.0288,-0.0277,-0.0171,-0.0202,-0.0148,-0.0105,-0.0101,-0.008,-0.0075,-0.0072,-0.0045,-0.0046,-0.0047,-0.0048,-0.0049,0,-0.0546,-0.0576,-0.061,-0.0613,-0.0614,-0.062,-0.061,-0.0559,-0.0542,-0.0472,-0.0448,-0.0365,-0.0322,-0.0244,-0.0142,-0.0159,-0.0024,-0.0036,0.0027,0.0029,0.0003,-0.0001,0.0041,0.0041,0.0041,0.004,0.004,0,-0.0571,-0.0597,-0.0634,-0.0651,-0.0683,-0.0665,-0.0671,-0.0641,-0.0595,-0.0567,-0.048,-0.0434,-0.0313,-0.0216,-0.0137,-0.002,-0.0014,0.0038,0.0057,-0.0009,-0.0015,0.0009,0.0004,0.0044,0.0043,0.0042,0.0042,0,-0.0587,-0.0613,-0.0656,-0.0687,-0.0701,-0.0722,-0.0726,-0.0719,-0.067,-0.0627,-0.0606,-0.0478,-0.0348,-0.0216,-0.0072,-0.0013,0.0094,0.0133,0.0069,0.0081,0.012,0.0112,0.0205,0.0206,0.0207,0.0208,0.0208,0,-0.0596,-0.0626,-0.0691,-0.0725,-0.0747,-0.0777,-0.0793,-0.0764,-0.0746,-0.0651,-0.0628,-0.0489,-0.0391,-0.0168,-0.0045,0.0129,0.0143,0.0196,0.0145,0.0129,0.0138,0.0129,0.0121,0.021,0.021,0.021,0.0211,0,-0.0612,-0.0645,-0.0682,-0.076,-0.0803,-0.0833,-0.085,-0.0843,-0.0788,-0.0749,-0.0625,-0.049,-0.0332,-0.0162,-0.0011,0.0102,0.0158,0.0206,0.0204,0.0156,0.0136,0.0142,0.0133,0.0214,0.0213,0.0213,0.0213,0,-0.0621,-0.0657,-0.072,-0.0779,-0.0838,-0.0868,-0.0875,-0.0842,-0.0815,-0.0706,-0.0667,-0.0485,-0.0375,-0.0175,-0.0045,0.0082,0.0093,0.0107,0.011,0.0108,0.0045,0.0004,0.0067,0,0,0,0,0,-0.0623,-0.0669,-0.0732,-0.0798,-0.0856,-0.0885,-0.0898,-0.089,-0.0843,-0.076,-0.0707,-0.0554,-0.0326,-0.0222,-0.0094,-0.0054,0.0097,0.0096,0.0109,0.0232,0.0228,0.0171,0,0,0,0,0,0,-0.0629,-0.0693,-0.0729,-0.0797,-0.0842,-0.0893,-0.0904,-0.0875,-0.0817,-0.0752,-0.0625,-0.0542,-0.0319,-0.0395,-0.0095,-0.0056,-0.0036,0.0209,0.0212,0.0234,0.0231,0.0228,0.0168,0,0,0,0,0]}]]